Find Starlink 3931

NORAD ID: 52548 Int'l Des: 2022-051 Owner: SPXS Country: US Constellation: starlink operational
LEOCIRCULAR

Live Position

Loading 3D Globe...

About Starlink 3931

Description loading...

Upcoming Passes

Passes for default location (London). Set your location on the main map for personalized predictions.

Altitude History

Loading altitude history...

Two-Line Element Set

1 52548U 22051R 26124.56518920 .00000947 00000-0 77611-4 0 9991
2 52548 53.2165 238.2854 0001334 90.3511 269.7634 15.08837185219881
Epoch: May 4, 2026 • Age: 11 hours

Current Status

Altitude 539.7 km
Velocity 7.60 km/s
Sub-Earth Point 16.40°N, 14.16°E
Launch Date May 13, 2022
Age 3.9 years
Type internet

Technical Details

Classification Payload
Mass 297.00 kg
Dry Mass 275.00 kg
Total Mass 297.00 kg
Length 0.20 m
Diameter 2.80 m
Span 9.00 m
Shape Box + pan
Manufacturer SPXS
Bus Type Starlink
Phase Status In Orbit
Owner/State SPXS/US

Most Searched